Home > Weather > Samarkand > Past weeks

Flag for Uzbekistan Past Weather in Samarkand, Uzbekistan — Yesterday and Last 2 Weeks

Now
63 °F

Clear.


Feels Like: 63 °F
Forecast: 64 / 89 °F
Wind: 1 mph from Southeast

Location: Samarkand

Current Time: Aug 29, 2016 at 5:34:13 AM

Latest Report: Aug 29, 2016 at 4:30 AM


Visibility: 4 mi

Pressure: 29.89 "Hg (27.46 "Hg at 721m altitude)

Humidity: 52%

Dew Point: 45 °F

Location of SamarkandLocation

Past Weather in Samarkand — Graph

°F

Samarkand Temperature Yesterday

Maximum temperature yesterday: 91 °F (at 2:00 PM)
Minimum temperature yesterday: 61 °F (at 4:30 AM)
Average temperature yesterday: 78 °F

High & Low Weather Summary for the Past Weeks

 TemperatureHumidityPressure
High95 °F (Aug 14, 2:00 PM)77% (Aug 25, 5:30 AM)30.01 "Hg (Aug 25, 5:30 AM)
Low57 °F (Aug 18, 5:00 AM)11% (Aug 20, 4:00 PM)29.68 "Hg (Aug 15, 3:30 AM)
Average78 °F33%29.86 "Hg
* Reported Aug 14 4:00 AM — Aug 29 4:00 AM, Samarkand, Weather by CustomWeather, © 2016

Note: Actual official high and low records may vary slightly from our data, if they occured in-between our weather recording intervals... More about our weather records

Advertising

Samarkand Weather History for the Previous 24 Hours

Scroll right to see more
 ConditionsComfort  
Time TempWeatherWind HumidityBarometerVisibility
4:00 AM
Mon, Aug 29
61 °FClear.2 mph55%29.89 "Hg4 mi
3:30 AM64 °FClear.1 mph49%29.89 "Hg4 mi
3:00 AM64 °FClear.No wind46%29.89 "Hg4 mi
2:30 AM63 °FClear.2 mph45%29.92 "Hg4 mi
2:00 AM63 °FClear.No wind49%29.92 "Hg4 mi
1:00 AM64 °FClear.No wind46%29.92 "Hg4 mi
12:30 AM70 °FClear.No wind33%29.92 "Hg4 mi
12:00 AM73 °FClear.6 mph27%29.92 "Hg4 mi
11:30 PM
Sun, Aug 28
72 °FClear.2 mph29%29.95 "Hg4 mi
11:00 PM75 °FClear.6 mph25%29.95 "Hg4 mi
10:30 PM75 °FClear.5 mph25%29.95 "Hg4 mi
10:00 PM75 °FClear.3 mph25%29.95 "Hg4 mi
9:30 PM73 °FClear.3 mph25%29.95 "Hg4 mi
9:00 PM75 °FClear.6 mph24%29.95 "Hg4 mi
8:30 PM75 °FClear.7 mph25%29.95 "Hg4 mi
8:00 PM81 °FClear.8 mph20%29.92 "HgN/A
7:30 PM81 °FClear.8 mph20%29.92 "HgN/A
7:00 PM81 °FClear.No wind26%29.92 "HgN/A
6:30 PM81 °FClear.1 mph30%29.92 "HgN/A
6:00 PM84 °FClear.2 mph27%29.92 "HgN/A
5:30 PM88 °FClear.6 mph18%29.92 "HgN/A
5:00 PM90 °FClear.6 mph17%29.92 "HgN/A
4:30 PM90 °FClear.6 mph15%29.92 "HgN/A
4:00 PM91 °FClear.5 mph13%29.92 "HgN/A
3:30 PM90 °FClear.2 mph17%29.92 "HgN/A
3:00 PM91 °FClear.5 mph16%29.92 "HgN/A
2:30 PM91 °FClear.5 mph16%29.95 "HgN/A
2:00 PM91 °FClear.5 mph16%29.95 "HgN/A
1:30 PM90 °FClear.5 mph15%29.95 "HgN/A
1:00 PM90 °FClear.5 mph12%29.95 "HgN/A
12:30 PM90 °FClear.3 mph11%29.95 "HgN/A
12:00 PM88 °FClear.1 mph13%29.95 "HgN/A
11:30 AM88 °FClear.2 mph17%29.98 "HgN/A
11:00 AM88 °FClear.2 mph19%29.98 "HgN/A
10:30 AM86 °FClear.2 mph17%29.98 "HgN/A
10:00 AM84 °FClear.3 mph19%29.98 "HgN/A
9:30 AM82 °FClear.3 mph23%29.98 "HgN/A
9:00 AM79 °FClear.5 mph30%29.98 "HgN/A
8:30 AM77 °FClear.5 mph28%29.95 "HgN/A
8:00 AM73 °FClear.No wind38%29.95 "HgN/A
7:30 AM66 °FClear.No wind56%29.95 "HgN/A
7:00 AM64 °FClear.2 mph56%29.95 "HgN/A
6:30 AM64 °FClear.1 mph46%29.95 "HgN/A
6:00 AM64 °FClear.5 mph43%29.92 "HgN/A
5:30 AM63 °FClear.5 mph49%29.92 "Hg4 mi
5:00 AM61 °FClear.3 mph52%29.92 "Hg4 mi
Weather by CustomWeather, © 2016

See weather overviewHow to use our weather pages